Theta_e
324 322 317 315 317 319 321 323 323 319 314 309 307 306 306 307 307 307 306 307 307 308 309 309 308 310 313 315 315 313 310 310 311 315 318 319 319 317 315 318 319 316 314 313 314 314 314 314 311 309 312 314 314 314 313 312 313 313 314 315 314 315 316 316 316 314 311 310 310 309 308 308 309 309 309 309 309 309 309 309 309 309 309 309 309
324 322 319 321 323 322 321 324 324 322 321 315 310 307 307 307 307 307 307 307 308 308 309 309 308 311 317 320 321 319 318 316 317 320 320 318 318 318 318 320 320 318 317 317 316 313 312 315 314 310 310 311 313 313 313 313 313 312 312 314 314 314 315 314 314 313 312 310 311 311 310 310 310 310 310 311 311 311 310 309 309 309 308 309 309
324 323 323 324 325 323 322 324 324 324 324 321 316 313 311 309 307 307 308 307 308 310 311 309 308 313 319 322 322 322 322 320 320 321 320 319 319 319 319 319 319 319 320 320 319 318 316 316 316 313 311 311 312 313 313 313 314 312 312 312 313 313 313 314 314 314 314 313 313 313 313 313 312 311 311 311 311 311 310 310 310 309 309 309 309
325 326 326 325 325 324 322 322 325 326 324 322 320 317 315 313 311 310 311 310 310 312 314 312 313 317 320 321 321 322 323 322 321 321 321 321 321 321 320 320 320 320 321 321 320 321 320 320 319 318 316 315 316 316 315 315 314 313 313 313 314 315 315 315 316 316 316 316 315 314 314 314 313 311 311 311 310 310 310 310 310 310 310 310 310
327 327 327 326 325 324 322 323 326 326 324 322 321 318 316 317 317 316 316 316 315 315 315 316 319 320 321 321 321 322 322 322 322 322 322 321 321 322 321 321 322 322 322 322 321 321 321 321 320 320 319 319 319 318 317 316 315 314 314 314 315 316 317 317 317 317 317 317 316 314 314 314 313 312 312 312 312 312 311 311 311 311 311 311 311
328 328 328 328 326 325 325 325 325 326 324 324 324 322 319 319 318 318 319 320 319 319 318 319 321 321 321 322 322 322 322 321 320 322 323 322 321 321 320 320 321 321 322 322 320 320 320 320 320 320 320 320 320 319 318 317 316 315 315 315 315 315 316 317 317 317 317 317 316 315 315 314 313 314 313 312 312 313 313 312 312 312 312 311 311
328 328 329 329 327 327 327 327 326 326 326 325 325 323 322 321 319 319 321 321 321 321 320 321 322 321 322 322 322 322 322 321 321 322 322 321 322 322 321 319 319 320 321 322 321 321 321 320 320 320 320 320 320 320 319 318 317 316 315 315 314 314 315 317 317 317 317 317 316 316 315 315 314 314 313 312 312 312 312 312 312 312 312 312 311
328 328 328 328 325 324 325 327 327 326 325 325 323 321 321 321 321 321 321 321 321 322 321 322 322 322 322 322 322 322 322 322 322 322 322 322 322 323 322 320 319 320 320 321 321 321 321 320 320 320 319 318 319 319 319 319 319 318 317 316 315 314 314 315 316 316 316 316 316 316 316 315 314 314 313 313 313 313 313 312 312 312 312 311 310
327 327 328 327 325 324 324 326 326 325 324 324 322 321 320 319 321 322 321 321 321 321 321 321 322 322 322 323 322 322 323 322 320 320 321 322 322 322 321 320 320 320 319 318 319 320 320 320 320 319 318 318 319 318 318 318 317 317 317 317 317 316 315 314 314 314 314 315 315 316 316 315 315 314 314 314 313 313 313 312 312 312 311 310 310
325 326 327 327 326 326 326 326 324 323 324 322 321 322 321 319 320 320 321 321 320 319 319 319 320 321 320 321 322 322 321 320 318 318 319 319 318 319 319 319 319 319 317 317 317 318 318 318 318 318 317 317 318 318 318 317 317 317 317 317 317 317 316 315 314 313 314 315 315 315 315 315 314 314 314 313 313 312 312 311 311 311 310 310 309
325 325 325 326 326 326 326 325 323 323 323 322 321 322 321 320 320 319 319 321 320 320 320 319 319 319 317 318 321 321 320 319 318 318 318 318 317 317 319 319 318 318 318 316 316 316 317 318 318 316 314 315 315 315 314 315 315 315 316 316 317 317 317 316 315 314 314 315 314 314 314 314 314 314 313 313 312 312 311 310 310 310 310 309 309
325 325 325 325 325 325 325 324 323 322 323 323 322 321 321 321 321 320 320 320 319 319 319 318 319 318 316 318 320 319 318 318 318 318 317 316 315 315 317 319 318 318 318 316 316 316 317 318 316 314 312 311 311 311 309 309 309 310 310 312 314 315 316 317 317 315 314 314 314 313 313 313 313 313 312 312 312 311 311 310 309 309 309 309 308
323 324 325 325 325 325 324 324 323 322 323 322 322 321 321 321 320 319 318 318 317 318 318 318 319 318 318 319 319 318 318 318 317 316 314 314 312 311 315 317 316 317 317 316 316 316 316 316 315 315 313 310 309 311 312 308 305 306 307 308 310 313 315 316 317 316 314 313 313 313 312 312 312 312 311 311 310 310 310 309 309 309 308 308 307
320 321 322 323 323 323 323 323 323 322 321 321 321 321 320 320 320 319 319 319 318 318 318 318 318 317 318 319 318 317 317 316 315 314 313 312 308 307 308 309 311 313 311 311 313 314 313 314 314 315 314 312 309 310 312 311 307 306 305 305 307 310 312 314 316 317 315 312 311 311 311 312 311 311 311 310 309 309 308 308 308 308 308 307 306
315 316 317 318 318 318 319 319 320 320 320 320 320 319 319 319 319 318 318 318 317 317 317 316 315 316 317 317 316 316 316 315 314 312 309 306 303 303 303 305 309 311 308 305 308 309 309 310 312 314 313 311 308 306 308 310 311 311 309 308 307 307 310 312 313 315 315 313 310 310 310 310 310 309 309 308 308 308 308 308 308 307 306 305 305
312 313 313 313 314 314 314 315 315 316 317 317 318 318 317 317 317 316 316 315 315 316 315 314 313 315 316 314 313 312 311 310 308 305 304 302 301 305 309 310 313 313 310 307 307 306 304 305 311 314 310 305 305 305 304 307 311 312 311 311 310 308 309 312 313 313 313 312 310 310 309 309 308 308 308 308 308 308 307 307 307 305 304 303 303
312 312 312 312 312 312 313 313 313 314 314 314 315 315 315 316 315 315 315 315 314 315 314 313 313 313 313 313 311 308 305 304 303 301 302 302 302 307 312 312 313 313 312 310 307 303 300 302 308 312 308 303 304 305 304 305 309 311 311 311 310 309 308 310 311 310 310 309 308 308 308 307 308 307 307 307 307 307 306 305 304 302 300 301 301
311 312 311 311 311 311 312 312 312 313 313 313 314 313 313 313 313 313 314 314 313 314 313 313 312 311 311 312 312 308 303 302 303 302 302 302 301 305 310 312 312 311 312 312 309 303 299 300 304 306 305 303 303 304 302 302 306 310 310 310 310 309 308 308 308 308 308 307 307 307 306 306 307 306 306 306 306 305 304 303 301 298 298 299 300
311 311 311 311 311 311 311 312 312 312 312 312 313 312 312 312 312 312 312 311 312 312 312 311 311 311 311 312 311 310 307 303 302 302 302 302 301 304 309 311 310 310 311 311 310 306 301 301 301 302 302 302 302 302 300 301 306 310 310 308 309 309 309 308 307 307 307 306 306 306 306 306 306 306 305 305 304 303 302 300 299 298 298 299 300
309 310 310 310 310 310 310 311 311 311 311 311 312 311 311 311 312 312 311 311 311 311 310 311 310 311 312 310 308 309 309 304 302 302 302 302 301 302 307 310 309 309 310 309 310 309 305 303 301 301 301 301 301 301 300 301 305 307 307 307 307 308 308 308 307 306 306 305 305 305 305 305 304 304 303 302 302 301 300 299 298 298 298 299 298
308 308 308 309 309 309 310 310 311 311 311 311 311 311 310 311 312 311 311 311 311 311 310 310 310 310 311 309 307 309 309 305 303 302 301 301 301 301 306 310 309 309 309 308 308 309 308 305 302 301 301 301 301 302 302 302 303 304 304 304 305 306 306 306 305 305 304 304 303 303 303 302 302 301 301 300 300 299 299 298 298 298 298 298 298
306 307 307 308 308 308 309 309 310 311 311 311 311 311 311 311 311 311 310 310 310 310 310 310 310 310 310 310 309 309 307 303 302 302 301 301 301 300 304 308 306 305 307 308 307 307 308 307 304 302 302 303 303 303 304 304 304 303 303 303 302 303 303 303 303 303 302 301 301 301 300 300 299 299 300 299 299 299 298 298 298 297 297 297 297
304 305 306 306 307 307 308 308 309 310 310 311 311 312 311 311 311 310 310 310 310 310 309 309 309 309 309 309 309 309 307 303 302 302 301 301 301 300 301 302 301 300 304 308 307 306 307 307 304 302 303 304 304 305 305 304 304 303 302 301 301 301 300 300 300 299 299 299 299 298 299 299 299 299 299 299 299 298 298 298 297 297 297 296 296
301 302 302 303 305 306 307 307 308 308 309 310 311 311 311 310 310 310 310 309 309 309 309 309 308 308 308 309 308 309 307 304 301 301 301 300 300 300 300 300 299 299 302 306 306 305 305 305 303 303 303 304 304 305 304 304 303 302 301 301 300 299 298 298 298 298 298 298 298 298 299 299 299 299 299 298 298 297 297 297 296 296 296 295 295
299 299 299 301 304 305 305 306 306 307 308 308 309 310 310 310 310 310 310 309 309 309 309 309 309 308 308 308 308 308 308 305 302 300 301 300 300 300 299 300 299 299 301 303 303 302 302 302 302 303 303 304 305 305 304 304 303 302 301 300 298 297 297 297 298 298 298 298 298 299 298 298 298 298 297 297 296 296 296 296 295 295 295 294 294
300 300 299 299 300 302 303 304 305 306 306 307 308 308 309 309 309 309 309 309 309 309 309 309 309 308 308 308 308 308 308 307 304 301 301 300 300 300 299 299 299 299 300 300 300 300 301 302 302 303 304 304 305 305 304 303 303 302 300 298 297 297 297 297 296 297 298 298 298 298 297 297 297 296 296 296 296 295 295 295 294 294 294 294 293
300 300 299 298 299 300 301 302 304 305 306 306 307 307 307 308 308 309 309 309 309 309 308 308 308 308 308 308 308 307 307 308 307 305 303 300 299 299 299 299 299 299 299 299 299 300 301 303 304 304 304 305 304 304 303 302 302 301 298 297 297 297 296 295 295 296 297 298 297 296 296 296 295 295 295 295 295 294 294 294 294 293 293 293 293
299 300 300 300 300 300 301 301 302 303 303 304 305 306 306 307 307 307 308 309 309 308 307 308 307 307 307 307 307 306 306 306 307 306 305 303 301 300 300 299 299 299 299 299 299 300 303 305 305 304 304 304 303 302 301 300 299 298 297 297 297 297 296 296 296 296 297 297 296 295 295 294 294 294 294 294 294 294 294 293 293 293 293 293 293
298 299 299 299 300 300 300 300 300 301 301 302 303 304 304 305 306 307 307 307 306 306 307 307 306 306 307 307 307 306 305 306 306 306 306 305 303 303 303 301 300 301 300 299 300 302 304 305 305 304 304 302 301 300 299 298 297 297 296 295 296 297 297 296 296 297 296 296 295 294 294 293 293 293 293 293 293 293 293 293 292 292 292 292 292
297 298 298 299 299 300 300 300 300 300 301 301 301 302 302 303 304 306 306 306 305 306 306 306 306 306 306 306 306 305 305 305 306 306 305 305 302 302 302 302 302 302 301 300 301 303 304 304 304 303 301 300 299 298 298 297 296 296 296 295 295 296 296 295 296 296 295 294 294 294 293 293 293 293 292 292 292 292 292 292 292 292 292 292 292
297 297 298 298 299 300 300 300 301 301 301 301 301 301 301 302 303 304 304 305 305 304 305 305 305 306 306 305 305 305 305 305 305 305 305 304 301 299 300 300 301 301 301 301 302 302 302 303 302 301 300 299 298 297 297 296 296 296 296 296 295 295 295 295 295 295 294 294 294 293 293 292 292 292 292 291 291 291 291 291 291 291 291 291 292
296 296 297 297 298 299 299 300 300 301 301 302 302 302 302 302 302 303 304 304 304 304 305 306 306 306 306 305 305 305 305 305 305 304 303 302 300 299 299 300 301 301 301 302 302 302 301 301 301 300 299 298 297 297 296 296 295 295 295 295 295 295 294 295 295 294 294 294 293 293 292 292 292 292 291 291 291 291 291 291 291 291 291 291 291
295 295 296 297 297 298 299 299 300 300 301 301 301 301 301 301 301 302 303 304 304 304 304 305 306 306 306 305 304 304 304 303 303 302 301 300 299 299 299 300 301 301 302 302 301 301 300 300 300 299 298 297 297 296 296 295 295 295 295 295 295 295 295 295 295 294 294 293 293 292 292 292 292 292 291 291 291 291 291 291 291 291 291 291 291
294 294 295 295 296 297 298 299 300 300 301 301 301 301 301 301 301 301 302 303 303 303 303 303 304 304 304 304 303 303 302 301 301 300 300 300 300 299 299 300 301 302 302 301 301 300 299 299 299 298 298 297 296 295 295 295 295 294 294 294 294 295 294 294 294 294 294 293 293 293 292 292 292 291 291 291 291 291 291 291 291 291 291 291 291
293 293 293 294 295 296 297 298 299 300 301 301 301 301 301 302 302 302 302 302 303 303 303 303 303 302 302 301 301 300 300 299 299 299 299 299 299 299 299 300 301 301 301 301 300 299 299 299 298 298 297 296 296 295 295 295 294 294 293 293 293 293 293 293 293 293 293 293 293 292 292 292 291 291 291 291 291 291 291 291 291 291 290 290 290
293 293 293 294 294 295 296 297 299 299 300 301 301 301 302 302 302 302 303 303 303 303 303 302 302 302 301 301 300 300 299 299 299 299 299 299 299 299 298 299 300 301 301 300 299 298 298 298 297 297 296 296 295 295 295 294 294 294 293 292 292 292 292 292 292 292 292 292 292 292 292 292 292 292 291 291 291 291 291 291 290 290 290 290 290
292 293 293 294 295 296 297 298 298 299 299 300 300 300 301 301 301 301 302 302 302 302 302 302 302 302 301 301 301 300 300 299 299 299 299 299 299 298 298 299 299 300 300 300 298 298 297 297 296 296 296 296 295 295 295 294 294 293 292 291 291 291 291 291 291 291 291 292 292 292 292 292 292 292 291 291 291 291 290 290 290 290 290 290 290
292 292 293 294 295 296 297 298 298 298 298 298 299 299 299 299 300 300 300 300 300 300 301 301 301 301 301 301 300 300 300 299 299 299 299 299 298 298 298 298 298 298 298 298 298 297 297 296 296 296 296 295 295 295 294 293 293 293 291 290 290 290 290 291 292 292 292 292 292 292 292 292 291 291 291 291 290 290 290 290 289 289 290 290 291
292 293 294 294 295 296 297 297 297 298 298 298 298 298 298 298 298 298 299 299 299 299 299 299 300 300 300 300 300 299 299 298 298 298 298 298 298 298 298 297 297 297 297 297 297 296 296 296 295 295 296 295 295 294 294 293 292 292 291 290 291 290 290 291 292 292 292 291 291 291 291 291 291 291 291 290 290 290 289 289 289 289 290 290 291
294 295 295 296 296 297 297 297 297 297 296 296 296 296 296 296 297 297 297 297 297 297 298 298 298 298 299 299 298 298 298 298 298 298 298 298 298 297 297 297 297 297 296 296 296 296 295 295 294 294 295 295 294 293 293 292 292 291 291 290 290 290 290 291 291 291 290 289 289 290 290 290 291 291 290 290 290 289 289 289 289 290 290 290 291
296 296 296 296 296 297 297 297 296 296 295 295 294 294 294 295 295 295 296 296 296 296 297 297 297 297 298 298 298 298 297 297 296 297 297 298 297 296 296 296 296 295 295 295 295 295 294 294 294 294 294 293 293 292 292 291 291 291 291 290 290 290 290 290 290 289 289 289 289 289 289 290 291 291 290 290 289 289 290 290 290 290 290 291 291
296 296 297 297 297 297 297 296 296 295 294 293 293 292 293 293 293 293 294 294 295 295 296 296 296 296 296 297 297 297 297 296 295 295 296 297 296 296 296 295 295 294 294 294 294 294 294 294 294 294 293 292 292 292 291 291 291 290 290 290 290 290 290 289 289 289 289 289 289 289 289 290 291 291 290 289 289 289 290 290 290 290 290 291 291
297 297 297 297 297 296 296 296 295 295 294 293 292 292 292 292 292 292 293 294 294 294 295 295 295 295 295 296 296 296 296 295 295 295 295 296 295 295 294 294 293 293 293 293 293 293 294 293 293 293 292 292 291 291 291 291 291 290 290 290 290 289 289 289 289 288 288 289 289 288 289 290 291 290 290 290 289 289 290 290 290 290 290 291 291
297 297 297 297 296 296 296 295 295 294 293 293 292 291 291 291 291 292 292 293 293 293 294 294 294 294 294 294 294 295 295 295 294 294 294 294 294 293 293 293 292 292 292 292 293 293 293 293 293 292 291 291 291 291 292 291 291 290 290 290 289 289 289 289 288 288 288 288 288 288 289 290 290 290 290 290 289 289 290 290 290 290 291 291 291
296 297 297 297 296 296 296 295 295 294 294 293 292 291 291 291 291 291 291 291 291 291 291 292 292 292 292 292 293 293 294 293 293 293 293 293 293 292 292 291 291 292 292 292 293 293 293 293 292 291 291 291 291 291 291 291 290 290 289 289 289 289 289 288 288 288 288 288 288 288 289 289 290 290 290 290 289 289 290 290 291 291 291 291 291
297 297 297 297 296 296 295 295 295 294 294 293 293 292 292 291 291 291 291 291 291 290 290 291 291 291 291 292 292 292 293 293 293 293 293 292 292 292 291 291 291 292 292 292 292 292 292 292 292 291 291 291 291 291 290 290 289 289 289 288 288 289 289 289 288 288 288 288 288 288 288 289 290 290 290 290 289 289 290 291 291 291 291 291 291
297 297 297 296 296 296 295 295 295 295 294 294 293 293 293 292 292 292 292 292 292 291 291 291 292 292 292 292 292 292 293 293 293 293 292 291 291 291 291 291 291 291 291 291 292 292 292 292 291 291 291 291 291 290 290 290 289 288 288 288 288 288 289 289 289 289 288 287 287 287 288 289 289 290 290 290 290 290 290 291 291 291 291 291 291
296 297 296 296 296 296 296 295 295 295 294 294 294 293 293 293 293 293 293 293 293 292 292 292 292 292 292 292 292 293 293 293 293 293 292 292 291 290 290 291 291 291 290 290 291 291 291 291 291 291 291 290 290 290 290 289 289 288 288 288 288 288 289 289 289 289 289 288 288 287 287 288 289 289 289 290 290 290 291 291 291 291 291 291 291
296 296 296 296 296 296 295 295 295 295 294 294 294 294 294 294 294 294 293 293 293 293 293 293 293 292 292 292 292 292 292 292 292 292 292 292 291 290 290 290 290 290 290 290 290 291 291 291 291 291 291 290 290 289 289 289 288 288 288 288 288 289 289 289 289 289 289 289 289 287 287 287 288 289 289 289 290 290 291 290 291 291 291 291 292
296 296 296 296 296 295 295 295 295 295 294 294 294 294 294 293 293 293 293 293 293 293 293 293 292 292 292 292 292 291 291 291 291 291 292 293 292 291 290 289 289 289 290 290 290 290 290 290 291 291 290 290 289 289 288 288 288 288 288 288 289 289 289 289 289 289 289 290 289 289 287 287 288 288 289 289 289 290 290 290 291 291 291 291 292
295 295 295 295 295 295 295 295 295 294 294 294 294 293 293 293 293 293 293 293 293 292 292 292 292 292 292 292 292 291 291 291 292 292 293 293 292 291 290 289 289 290 290 290 290 290 290 290 291 290 290 289 288 288 288 288 288 288 288 289 289 289 289 289 289 289 290 290 290 290 289 287 287 288 289 289 289 290 290 290 291 291 291 292 292
Wind_Speed
16 19 22 21 20 22 21 18 17 17 17 17 17 17 17 18 18 18 18 17 16 15 13 12 11 11 10 9 8 7 7 6 6 7 6 6 5 4 5 6 4 3 3 4 3 3 4 4 3 4 5 5 5 5 5 6 6 6 5 4 3 3 3 2 4 4 2 2 3 1 1 1 1 1 2 4 7 7 5 9 11 9 9 13 15
17 18 21 22 21 22 21 19 17 17 16 16 16 17 18 18 19 18 18 17 16 16 14 13 12 11 11 10 9 8 7 7 7 8 7 6 5 5 5 5 4 2 3 2 1 0 2 2 0 0 2 4 5 3 2 3 4 3 4 4 3 3 3 2 3 3 1 1 1 2 1 2 1 3 4 4 5 4 3 6 8 5 5 8 13
14 16 19 21 21 22 22 20 18 17 16 15 15 16 18 19 19 19 18 17 17 16 15 14 13 12 11 11 10 9 9 8 8 8 6 5 4 3 4 5 4 3 3 3 2 1 1 1 1 1 1 2 3 1 1 1 3 3 2 2 3 2 3 2 1 1 1 1 1 3 2 2 2 1 3 4 5 3 2 4 4 4 5 6 9
11 13 15 18 19 21 22 20 17 16 16 16 16 17 18 18 18 18 17 17 17 17 16 14 13 12 12 11 10 10 10 9 8 8 7 6 5 3 3 4 4 4 4 4 4 4 3 2 2 2 1 1 1 1 1 0 1 2 1 1 1 1 1 1 1 2 2 2 3 3 1 2 2 0 2 5 6 4 3 4 4 4 6 7 8
11 12 13 14 16 18 19 18 17 16 17 19 19 19 18 18 17 17 16 16 17 17 16 15 13 13 12 11 11 11 11 11 10 9 8 7 7 6 6 5 6 6 6 7 7 6 5 5 4 3 3 3 2 1 1 4 4 2 1 1 1 1 2 2 3 3 3 4 4 4 2 1 2 2 3 4 5 5 5 6 6 7 11 13 11
10 10 10 11 13 14 16 17 17 16 17 19 18 17 17 17 17 16 15 15 16 16 15 14 14 13 12 12 11 11 12 12 10 9 8 8 8 8 8 8 8 8 8 8 8 7 6 6 5 5 5 5 4 5 5 6 7 6 5 4 3 2 4 4 4 4 5 5 5 5 4 4 5 4 4 5 6 7 7 7 7 8 12 14 13
8 8 9 10 13 14 14 17 18 17 18 19 18 16 16 17 17 17 17 16 16 16 15 14 15 14 12 12 12 11 12 12 10 9 9 8 9 10 10 11 11 12 11 10 8 7 6 6 5 6 7 7 7 7 7 6 7 9 9 6 5 4 4 4 5 5 6 8 7 6 6 6 6 6 5 6 7 8 8 7 7 10 14 14 14
7 8 9 11 14 15 15 15 17 17 18 20 20 18 19 20 19 18 18 18 17 17 16 15 15 14 13 13 13 12 12 12 10 9 9 9 10 11 12 12 13 13 13 11 8 8 8 7 8 8 9 8 9 9 8 7 6 7 8 8 9 10 9 7 8 9 9 10 10 7 6 8 8 8 9 9 7 6 8 10 11 14 16 16 15
7 7 9 10 12 14 15 14 14 14 15 17 19 19 21 22 21 18 17 18 19 18 17 16 15 14 13 13 13 14 15 14 12 12 12 12 12 13 13 14 12 11 10 9 7 7 7 8 8 9 9 10 11 12 12 10 8 7 9 11 11 13 14 12 13 14 11 10 10 9 10 11 10 10 10 9 7 9 13 14 13 15 16 17 18
7 7 8 8 9 11 12 12 12 12 13 14 16 17 19 21 21 18 15 17 18 18 16 15 15 15 14 14 14 16 15 13 13 14 14 14 13 12 11 10 8 6 4 5 5 4 3 4 4 4 5 7 9 10 11 12 12 12 12 13 13 14 15 15 16 16 13 11 12 12 12 12 10 10 11 11 12 15 15 12 12 15 17 19 20
7 7 8 7 7 9 8 7 8 9 9 9 13 16 17 19 20 18 18 18 17 16 16 14 13 13 14 14 14 13 12 12 12 12 12 11 9 7 4 3 2 2 1 3 2 1 1 2 2 1 1 2 4 5 7 10 12 12 12 12 14 15 15 14 16 16 14 13 14 12 12 12 11 11 12 13 14 14 12 11 13 16 18 20 21
8 8 8 8 8 8 8 7 7 7 6 7 10 13 15 16 15 15 17 19 19 18 18 17 15 15 14 13 12 10 9 8 7 7 7 6 5 3 1 0 1 2 2 2 1 1 1 1 1 1 1 1 2 3 4 6 8 10 11 11 11 13 13 13 15 15 14 14 14 13 13 12 12 13 15 14 14 14 16 17 17 17 18 21 22
7 7 7 7 7 7 7 7 6 7 7 7 7 9 11 11 11 11 12 15 17 17 16 14 13 12 9 9 8 6 5 6 6 6 6 6 5 3 2 2 2 2 2 2 2 2 1 1 1 2 4 4 3 2 3 6 9 9 11 12 12 12 12 13 14 16 17 17 14 11 13 14 13 14 16 16 16 18 20 21 21 21 23 25 25
7 7 7 6 6 6 6 6 6 6 6 6 6 7 8 8 8 8 9 10 10 10 10 9 8 6 5 6 6 7 8 7 7 6 5 4 4 3 3 4 3 3 3 3 3 2 3 2 1 2 5 6 5 4 3 7 10 10 10 12 12 13 13 13 14 16 19 21 19 16 16 16 16 17 19 19 19 20 21 23 24 26 28 30 32
9 8 8 7 7 6 6 6 5 5 5 5 5 5 5 5 5 6 7 7 7 7 7 7 6 6 8 8 6 7 7 6 6 5 4 4 3 3 2 3 3 2 2 2 3 3 5 5 3 4 8 8 8 8 6 7 8 7 7 8 9 13 14 14 14 15 17 20 21 20 19 18 18 20 21 20 21 22 24 25 27 29 31 32 33
9 8 8 7 7 6 6 6 5 5 5 5 5 4 4 4 4 5 5 5 6 7 6 6 7 8 8 7 6 6 6 5 5 4 3 2 2 3 1 1 3 2 1 2 4 5 5 5 3 4 9 9 8 9 9 8 6 4 4 5 8 12 12 12 12 13 14 16 17 19 20 19 20 21 21 21 22 23 25 26 28 29 28 25 24
7 7 6 6 5 5 5 4 4 5 5 5 5 5 5 6 5 5 6 5 6 8 7 7 8 8 8 7 5 6 6 4 4 3 2 1 2 3 2 2 3 2 1 1 4 6 5 4 4 5 8 9 8 9 11 9 5 4 5 7 8 11 11 11 12 11 12 13 15 17 19 20 22 23 22 22 23 24 26 28 28 26 22 20 21
5 4 4 5 5 5 4 3 3 4 3 4 5 5 5 6 6 6 6 6 6 7 7 7 8 8 8 8 6 5 5 4 4 3 2 2 1 3 3 3 2 1 1 1 3 6 5 5 6 7 9 11 10 10 11 9 5 4 6 8 9 10 11 12 13 11 12 14 17 19 20 21 22 22 23 23 24 26 28 28 27 25 21 19 19
3 2 2 2 2 2 2 2 2 2 3 3 4 5 4 4 5 6 6 7 7 8 8 8 9 8 9 9 9 8 6 5 4 3 3 3 2 3 4 4 4 3 2 2 4 6 5 5 7 9 10 11 11 11 10 6 4 5 6 7 8 10 12 13 14 15 16 17 18 20 21 22 24 25 26 27 27 27 27 26 25 22 17 16 17
3 2 2 2 2 2 3 4 4 4 5 5 6 6 6 6 7 7 7 8 9 10 10 10 10 10 10 10 10 9 8 7 5 4 4 3 3 4 4 4 5 5 4 4 5 7 7 5 6 8 9 10 10 10 7 6 8 9 9 8 8 11 13 15 17 18 19 19 21 23 23 24 25 25 25 25 24 23 21 21 20 16 14 17 18
4 4 4 4 4 4 4 5 6 6 7 7 8 9 9 9 10 10 10 10 11 11 11 11 12 11 11 10 9 9 10 9 7 6 5 4 4 5 5 4 4 4 4 5 5 7 7 4 5 7 9 9 9 8 7 6 7 8 8 9 12 15 15 17 20 21 20 20 20 20 19 18 18 17 16 16 18 18 17 18 18 15 16 19 20
6 6 6 6 5 5 6 6 7 7 7 8 9 9 9 10 11 11 12 12 13 14 13 13 13 13 12 11 10 11 12 10 8 8 7 5 5 5 7 7 6 4 4 5 5 7 9 8 9 10 9 9 9 8 7 7 7 9 9 10 12 14 15 17 18 18 16 14 13 13 13 12 13 13 12 13 14 14 15 17 18 17 18 20 20
9 9 9 8 8 8 8 9 9 10 10 11 11 11 11 11 11 12 13 13 14 15 15 15 14 14 14 13 12 13 15 14 11 10 8 6 5 5 6 6 4 3 3 4 5 9 13 13 12 10 10 10 9 9 9 9 9 10 11 11 11 11 12 12 12 12 11 11 11 12 12 12 11 11 11 11 12 13 14 17 19 20 20 20 21
15 16 16 14 12 11 11 11 11 12 12 13 14 14 14 13 13 14 14 15 15 16 17 17 17 17 17 16 15 15 17 16 14 12 10 8 6 5 4 3 2 1 3 4 6 11 15 14 11 10 10 10 10 11 11 11 11 12 12 11 10 11 10 9 8 9 9 10 11 11 10 10 10 10 11 12 14 17 19 20 21 21 20 18 18
19 20 20 17 15 13 13 13 13 14 14 14 16 17 17 18 18 18 18 18 19 19 19 19 19 19 19 18 17 17 16 16 16 14 11 9 8 6 5 3 2 1 3 5 7 12 14 13 10 10 10 11 12 13 12 12 13 12 11 11 11 10 9 7 6 8 9 9 9 9 9 10 10 11 13 16 19 21 20 18 16 16 16 16 15
17 19 21 21 20 18 17 16 16 15 16 16 17 18 19 20 21 21 21 21 21 22 23 22 20 20 20 19 18 18 17 17 18 16 13 11 10 8 6 4 2 3 5 6 8 11 13 12 11 10 11 12 13 13 13 13 13 13 12 12 9 6 6 8 9 9 8 7 8 9 9 10 11 13 16 17 17 16 14 13 13 13 13 14 14
17 18 20 21 21 20 19 19 18 18 17 17 18 19 20 21 22 23 23 23 24 25 25 23 21 21 21 19 19 21 21 22 21 18 15 14 11 8 7 5 4 5 7 8 9 11 12 11 11 10 11 12 13 14 15 14 13 12 11 8 6 7 8 10 10 7 5 7 9 10 10 11 12 13 14 12 12 12 11 12 13 13 13 13 14
18 19 20 20 20 20 20 20 21 21 21 20 21 21 21 22 23 24 24 24 26 27 26 23 22 21 21 20 20 22 22 21 20 18 15 14 11 9 8 6 6 8 8 8 10 12 12 11 11 11 11 12 12 11 11 9 8 8 7 5 6 9 10 10 9 7 5 8 12 12 11 11 11 11 11 11 11 11 11 11 12 13 13 13 14
18 19 20 21 21 21 21 21 22 23 23 23 24 24 25 25 24 24 25 26 27 28 29 28 26 24 22 20 21 22 20 17 17 16 15 13 10 9 9 7 7 9 9 8 7 10 11 11 12 11 10 10 8 6 5 6 5 6 8 8 5 5 7 7 6 7 9 10 11 11 10 10 10 10 10 11 11 11 11 11 12 13 13 13 14
17 17 18 19 20 20 20 21 21 22 23 24 25 25 27 28 27 28 28 29 28 29 30 30 30 29 25 19 18 20 19 15 13 15 17 15 11 10 12 10 9 11 10 7 6 10 11 11 11 9 7 7 6 5 7 7 5 5 8 8 5 5 8 7 4 7 10 10 9 10 10 10 10 10 10 11 11 11 11 11 12 13 13 14 15
18 17 16 16 17 18 19 19 19 20 21 23 24 24 25 27 29 29 30 30 30 30 29 28 29 29 26 22 21 20 18 15 13 14 17 17 14 12 13 13 12 12 11 9 8 10 10 10 9 9 8 8 7 7 7 7 6 5 6 6 5 6 6 5 5 8 10 8 9 10 10 9 10 11 11 11 12 12 12 12 12 13 13 14 15
19 18 18 17 17 18 18 19 19 20 20 21 22 23 23 24 26 26 27 29 30 30 29 28 28 28 26 24 23 22 21 20 18 16 16 16 15 14 13 12 12 12 11 10 10 9 9 10 10 9 9 8 8 8 9 7 6 6 4 4 5 5 5 5 10 12 9 7 9 10 10 10 10 11 12 13 13 13 13 13 13 14 14 14 15
18 18 18 17 17 17 18 18 18 19 20 21 21 22 23 24 24 24 24 23 24 26 28 29 30 30 28 25 23 23 24 23 21 19 17 15 15 15 13 12 12 12 12 12 11 10 10 10 10 10 9 8 8 8 7 6 5 5 4 4 5 5 4 6 11 11 8 8 10 10 9 10 10 11 12 13 13 13 13 13 13 13 13 14 14
18 18 17 17 17 16 16 17 18 18 19 20 20 21 22 23 23 24 23 22 22 24 25 27 28 29 29 27 25 23 23 21 20 20 17 14 14 15 15 14 14 14 14 13 11 11 11 11 10 10 9 8 8 7 6 5 5 4 4 3 3 4 5 5 6 7 8 9 10 9 10 10 11 11 13 13 13 13 13 13 13 13 13 14 15
16 16 17 17 17 16 16 17 18 18 18 17 17 18 19 19 20 21 22 22 22 21 19 20 23 26 28 28 26 23 22 21 20 19 17 16 17 17 17 17 17 17 17 15 12 12 12 11 11 10 9 9 9 7 6 6 5 3 3 3 3 4 5 4 5 8 9 8 8 9 10 11 11 11 12 13 13 14 13 13 13 13 14 15 16
14 14 14 14 14 15 17 17 17 16 15 15 13 13 14 15 16 17 17 18 19 18 15 14 16 18 21 25 25 23 22 23 22 21 20 19 19 20 20 19 19 19 19 16 14 14 13 13 12 11 9 8 7 6 6 5 4 4 4 3 2 3 4 4 6 8 8 7 8 10 11 11 11 11 12 13 13 13 13 13 13 14 15 16 16
13 13 12 12 12 13 13 13 13 14 14 14 12 11 12 13 13 15 15 15 15 16 15 14 14 14 15 18 20 20 21 21 21 22 21 20 20 20 20 18 19 20 19 16 14 13 13 13 12 10 9 8 6 5 5 5 4 4 5 3 2 3 4 5 8 9 8 6 9 11 11 11 11 11 11 12 12 12 12 12 13 15 15 15 14
12 12 12 12 12 12 9 8 9 10 10 11 12 12 13 14 14 15 16 16 15 15 14 14 15 14 12 13 16 19 19 20 21 22 23 22 22 20 18 17 17 17 17 16 16 15 14 13 12 10 8 8 6 5 6 5 4 4 4 2 2 4 5 7 9 9 8 8 9 10 11 11 11 10 10 11 11 11 12 12 13 14 14 13 14
10 10 9 8 7 6 4 6 8 7 8 9 10 12 13 13 13 13 14 15 15 15 14 13 14 13 10 12 16 18 17 18 19 21 23 24 24 20 18 17 17 16 17 19 21 19 16 15 13 11 8 7 6 6 6 5 4 4 3 1 2 5 5 5 5 6 7 9 9 10 10 11 10 10 10 9 10 11 12 13 13 14 14 14 15
5 3 1 1 1 2 4 6 7 8 9 9 10 12 12 12 12 12 13 13 12 13 13 13 13 12 12 15 19 18 15 13 16 19 22 24 22 19 17 16 17 17 18 20 21 18 14 12 11 10 9 8 7 7 6 5 3 2 2 2 3 4 4 5 7 7 9 11 11 12 12 13 12 11 10 9 9 10 12 13 14 14 13 14 16
1 0 1 2 3 5 5 5 6 8 8 9 10 11 12 13 14 13 13 12 12 13 13 13 13 15 18 20 22 21 14 9 10 14 17 19 19 19 18 18 18 17 17 17 17 14 12 11 11 10 9 8 7 6 5 4 3 1 2 2 4 4 3 5 8 10 10 11 13 14 15 15 14 13 12 11 10 11 12 13 13 14 13 14 16
6 4 2 3 4 4 4 5 6 8 8 9 9 9 10 12 14 13 12 11 11 12 13 14 16 19 21 22 23 21 14 9 8 9 14 19 21 21 20 19 18 17 17 17 16 15 13 12 11 9 8 7 7 5 4 4 4 2 2 4 5 6 4 5 8 10 10 11 13 14 15 16 15 14 14 12 11 11 12 12 13 14 15 15 17
7 5 4 3 4 3 4 5 6 7 9 10 7 5 4 5 7 8 8 8 9 10 13 17 19 20 18 17 17 16 15 15 14 17 21 24 24 24 23 21 20 19 18 18 17 15 13 11 11 10 9 10 10 9 6 7 7 5 4 4 5 5 5 6 8 9 9 11 12 13 15 16 15 14 13 12 10 10 11 12 13 15 15 15 16
4 3 2 3 4 3 4 4 5 7 11 13 11 8 6 3 1 2 5 7 9 10 13 16 16 14 12 13 16 19 20 21 22 24 26 26 25 24 22 21 19 17 17 17 15 13 11 12 11 10 9 11 11 10 8 8 7 5 5 4 3 4 5 6 7 8 9 10 12 13 14 16 17 15 14 11 9 10 12 13 14 16 16 16 16
3 3 0 2 2 2 3 3 4 6 9 12 12 11 8 5 5 5 4 3 4 6 7 8 9 11 14 16 17 19 21 23 24 25 24 23 22 21 19 19 18 16 15 16 15 13 12 13 11 8 8 9 10 9 8 6 5 5 4 3 3 4 5 6 7 8 9 10 11 12 14 16 17 16 15 12 11 12 14 14 15 16 16 16 16
3 1 2 1 1 2 3 3 4 5 7 9 10 11 9 8 8 10 11 11 9 10 12 13 14 15 16 16 17 18 20 22 23 22 21 19 17 16 15 16 16 13 12 14 17 17 16 13 9 8 9 11 10 8 7 6 5 4 4 4 4 5 6 7 8 9 10 10 11 12 13 15 16 17 15 13 13 15 16 16 16 16 16 16 16
2 3 3 2 2 3 5 5 6 6 6 7 9 10 12 12 13 13 14 14 14 15 16 17 18 18 19 19 20 20 19 19 19 19 19 17 14 12 12 14 14 11 8 11 15 17 15 13 10 8 9 10 9 8 7 6 5 4 4 5 5 6 7 8 8 10 11 11 11 12 13 14 16 17 15 13 15 17 17 17 16 16 15 15 15
6 5 4 3 3 3 4 5 6 6 6 7 8 8 10 12 13 13 13 14 14 15 17 17 18 18 18 19 18 18 17 16 15 16 17 15 12 12 14 14 13 9 7 8 11 13 14 13 11 9 9 9 9 7 7 5 4 4 5 6 6 7 7 8 8 9 11 12 13 13 13 14 16 17 15 15 16 17 16 16 16 16 15 15 16
4 3 3 3 3 2 3 4 4 5 5 6 7 7 7 8 9 9 11 12 12 13 14 14 15 16 17 17 16 15 13 12 11 12 13 12 10 11 13 12 9 7 6 7 9 10 10 10 10 9 9 8 7 6 6 5 4 5 5 6 7 7 8 8 8 9 10 12 13 14 14 14 15 16 17 16 15 14 14 15 16 16 16 16 16
3 3 4 3 3 3 4 4 5 5 5 5 6 6 6 6 6 6 7 9 9 10 10 11 12 13 14 14 12 11 10 9 8 8 9 10 10 11 11 10 8 7 6 6 7 7 6 7 8 9 8 7 6 6 5 5 4 5 5 6 6 7 8 8 9 9 10 11 13 14 14 14 14 15 17 16 13 12 13 15 16 16 15 15 16
2 2 2 2 2 3 3 4 6 6 6 5 5 6 6 6 6 6 7 7 7 8 8 9 9 10 11 11 10 9 8 7 7 7 7 8 9 10 9 8 7 7 8 7 7 6 5 5 6 8 7 6 5 4 4 4 4 5 5 6 7 7 8 8 9 9 10 11 12 13 14 14 14 15 17 16 13 12 13 14 16 16 15 14 14
Wind_Direction
181 183 188 189 190 196 197 194 194 189 186 189 190 189 188 184 181 179 174 172 171 172 175 175 170 165 158 156 158 156 153 153 146 135 135 138 138 130 111 104 102 96 96 95 88 93 89 65 57 93 85 75 68 44 38 51 45 48 60 59 71 69 40 70 113 123 151 140 121 163 298 62 120 262 307 308 328 344 328 316 331 345 339 326 320
179 182 189 191 194 198 196 195 197 195 192 193 193 194 192 189 187 184 181 181 180 180 183 184 182 174 165 164 167 165 163 160 153 150 155 156 147 136 127 134 147 144 127 118 64 324 113 106 172 128 101 111 102 74 43 46 27 37 57 51 61 65 41 68 117 117 135 141 143 236 298 9 273 271 296 304 327 340 307 319 342 353 337 324 316
175 179 186 190 193 195 195 196 198 198 197 198 197 195 195 194 192 189 189 190 188 187 189 192 190 179 171 173 177 174 176 177 169 164 169 167 160 157 150 157 169 166 156 154 178 247 183 151 228 284 286 137 120 94 39 55 24 28 59 51 58 69 48 60 117 124 155 179 259 240 236 320 323 272 291 313 344 359 289 294 324 322 322 336 324
170 177 184 189 190 193 197 198 197 197 198 203 204 198 197 198 195 194 194 195 195 192 190 190 189 186 182 183 187 184 185 189 181 173 176 174 177 194 189 190 193 184 185 187 193 214 213 193 212 242 269 240 164 48 21 93 55 42 11 336 32 68 33 7 300 295 279 265 280 270 252 347 339 306 287 308 335 357 332 311 324 317 308 321 322
172 181 188 191 193 195 197 198 199 199 200 206 209 202 199 199 196 196 195 195 196 194 192 190 187 191 193 192 197 195 193 200 196 186 190 191 191 200 205 210 212 205 209 215 215 219 220 217 219 221 236 246 223 204 236 223 197 143 171 237 240 290 302 302 299 303 290 267 263 283 331 335 275 302 322 308 310 318 312 309 313 315 317 323 324
181 185 188 191 193 193 194 198 203 204 202 203 201 197 200 204 201 198 197 198 199 196 194 194 194 197 200 201 205 207 209 216 212 200 209 219 216 219 221 223 225 224 222 224 228 236 245 247 237 225 236 248 245 245 252 241 219 211 222 212 196 265 283 274 283 293 287 272 254 257 276 268 257 280 303 306 306 305 302 295 286 298 313 315 308
186 185 185 186 188 189 193 198 201 204 206 204 197 189 195 205 206 202 201 199 201 201 198 201 204 202 203 208 212 214 221 226 217 208 221 234 234 235 239 237 235 229 218 213 223 236 252 264 250 227 230 238 238 246 262 264 243 239 244 232 203 218 248 262 275 275 272 268 259 253 257 255 255 266 281 295 303 302 298 289 289 304 311 307 301
182 184 182 184 192 197 200 202 202 207 212 212 212 208 205 207 206 206 209 207 205 205 204 206 210 207 209 218 219 219 222 221 216 216 223 229 231 235 241 244 241 229 212 200 208 224 232 246 249 241 242 241 233 236 248 256 256 257 255 246 237 236 239 249 257 253 255 261 262 267 267 259 258 262 274 291 297 288 278 279 295 310 310 306 306
176 180 177 183 193 196 200 202 204 211 214 215 221 221 215 213 209 205 210 212 210 208 205 205 206 204 208 216 217 216 216 216 225 234 232 229 230 236 245 251 249 237 217 198 209 237 248 251 254 255 254 248 243 246 248 248 259 270 265 262 263 255 247 247 247 246 256 271 272 271 267 264 265 267 271 274 266 264 271 278 293 305 303 303 306
165 169 169 176 181 183 192 201 203 209 217 221 225 221 215 216 217 215 214 215 216 215 215 217 215 211 214 219 217 217 220 229 241 246 247 246 243 243 251 256 254 250 219 175 199 247 265 252 252 260 258 249 248 253 255 258 266 272 268 266 268 264 258 254 250 247 256 270 270 268 271 271 268 264 260 259 268 282 288 287 290 297 300 302 302
154 156 154 154 159 164 168 175 185 196 207 212 212 210 213 218 221 218 218 221 222 220 223 233 238 240 244 242 232 231 243 253 251 246 250 252 246 240 245 258 276 312 63 117 159 197 184 201 220 246 263 247 249 255 259 265 269 272 271 266 264 268 268 263 256 251 254 265 268 267 273 274 269 270 272 272 276 281 279 277 287 296 298 298 298
139 139 140 139 143 149 146 148 167 175 175 180 187 197 211 222 221 217 220 227 232 233 237 244 249 256 258 249 242 249 257 250 235 224 217 211 202 180 149 135 51 38 57 83 91 112 143 192 273 308 297 280 299 300 282 273 273 275 277 277 273 273 272 267 262 252 245 253 261 262 266 273 274 274 273 267 264 263 265 277 291 293 292 292 293
120 119 125 133 138 141 138 142 160 172 180 189 189 192 203 214 220 219 222 229 233 234 235 237 243 250 244 233 235 233 210 183 175 175 172 175 184 170 154 166 148 132 136 126 115 123 139 144 328 313 296 283 289 307 294 287 288 285 281 280 281 282 277 271 267 256 243 241 246 253 261 264 262 263 268 271 272 273 276 283 288 287 288 291 291
106 107 113 123 128 131 131 134 146 166 186 195 193 196 201 204 210 211 213 220 221 216 210 208 220 223 184 170 181 178 167 163 168 177 183 201 218 202 179 167 156 158 167 162 167 180 193 203 209 260 272 270 262 256 276 291 293 295 288 280 278 280 278 273 268 261 250 243 240 245 254 254 254 265 278 284 283 282 284 287 288 288 290 292 294
104 104 105 108 112 118 123 127 134 146 160 168 175 190 199 199 199 196 201 206 197 193 197 192 184 164 144 148 170 175 175 184 197 209 220 220 205 174 160 146 142 169 199 202 210 218 227 230 222 239 253 260 266 271 277 284 288 298 294 275 269 273 275 275 272 264 255 248 245 249 257 260 265 273 280 282 282 284 286 287 289 291 295 298 300
98 101 102 104 108 111 116 121 127 135 141 145 152 158 152 151 154 152 162 174 166 165 174 171 164 153 148 167 201 205 205 218 226 219 204 190 149 125 117 121 141 176 226 230 237 247 252 250 239 251 263 269 277 282 285 284 280 283 275 255 264 274 273 271 267 259 253 252 253 259 267 271 274 278 281 283 284 286 288 290 294 299 301 300 298
87 91 97 99 101 104 111 118 124 133 142 146 150 148 137 138 145 143 147 152 150 154 159 159 162 162 161 177 210 224 221 222 226 211 178 164 124 117 143 179 160 168 194 209 260 275 279 266 234 235 271 288 288 284 288 290 277 253 247 247 263 280 282 275 267 259 255 257 261 267 272 276 279 281 283 285 286 288 291 295 298 299 297 292 290
65 77 88 86 93 104 107 116 131 145 159 161 164 165 154 153 159 160 166 171 170 174 175 169 173 176 172 173 187 209 219 209 211 218 199 200 159 127 165 203 187 175 163 160 270 283 282 270 251 248 271 286 285 280 284 283 266 243 244 249 257 270 278 278 274 269 267 268 271 273 276 279 281 282 284 285 288 292 294 296 297 296 292 289 290
40 56 72 67 98 127 130 147 167 182 197 195 189 186 182 188 195 194 197 198 194 194 191 186 186 182 179 184 188 201 226 232 227 236 230 225 202 156 182 225 225 213 195 186 262 281 279 264 260 264 275 279 277 280 280 262 224 218 233 252 258 252 255 266 272 275 278 279 279 279 280 282 282 284 286 288 290 293 294 295 297 297 294 292 295
347 334 308 295 279 255 238 239 240 237 237 237 228 224 227 231 223 212 211 212 208 205 201 198 196 187 188 200 198 201 227 241 242 247 243 235 208 172 178 233 235 226 225 216 243 271 275 268 270 275 279 280 279 283 278 236 212 214 218 227 233 233 243 259 268 274 280 284 286 288 291 293 295 297 298 299 301 301 299 300 304 304 297 293 295
309 310 302 292 287 281 265 257 255 250 248 248 244 242 239 233 224 217 219 221 218 214 208 208 211 206 204 209 202 203 229 246 245 241 233 221 207 177 167 199 215 216 233 231 239 255 251 263 304 296 283 284 283 281 277 251 236 240 241 236 234 238 250 264 271 277 285 289 292 295 297 298 299 300 299 301 305 305 303 304 308 303 290 288 293
299 305 303 293 288 282 270 263 259 254 250 249 247 243 235 226 222 218 220 224 223 218 215 216 220 218 213 212 206 210 231 243 236 227 221 211 204 182 176 196 207 206 234 250 253 242 235 259 300 298 281 279 279 274 273 268 267 274 274 266 260 259 263 268 274 281 288 291 291 290 287 286 286 286 283 281 284 287 290 295 297 290 282 278 278
292 290 286 283 285 284 277 269 264 259 254 248 243 239 231 226 224 221 221 224 223 219 219 221 224 224 223 222 215 216 233 241 231 223 221 210 204 199 195 210 222 212 223 248 256 250 250 265 285 285 273 272 273 272 274 278 284 289 287 284 281 279 279 281 282 282 281 281 282 281 283 284 282 279 278 279 281 280 277 275 273 271 273 275 270
282 278 277 278 280 278 274 271 267 262 257 249 241 238 235 232 230 228 226 227 226 223 224 225 228 230 228 224 218 219 231 235 223 214 214 209 209 214 212 223 251 183 177 206 235 250 258 266 272 272 271 271 270 272 277 282 288 293 294 292 289 287 291 294 290 284 281 283 287 287 285 283 281 280 283 284 279 272 268 267 266 265 270 282 284
279 276 274 273 274 273 272 270 266 261 257 251 245 242 239 236 235 234 232 233 233 234 236 235 233 230 226 223 219 214 215 218 214 208 208 212 215 216 215 224 245 195 190 213 235 249 260 269 272 274 274 270 269 274 280 286 293 296 295 293 292 294 297 292 279 280 284 285 286 283 281 284 284 279 272 268 266 269 275 282 284 282 282 287 290
278 274 270 267 266 267 267 266 264 261 257 252 249 247 244 241 240 238 237 238 239 240 241 238 233 229 226 221 216 211 207 211 215 213 212 215 215 214 219 233 242 229 235 250 257 257 262 269 274 274 272 270 272 278 284 291 297 298 295 297 300 295 284 282 285 288 288 288 290 289 289 293 287 276 271 271 275 283 292 294 292 291 291 292 292
275 273 272 270 267 264 263 261 258 256 254 252 251 249 246 244 243 242 241 242 241 241 242 239 234 232 229 221 217 221 220 216 215 217 218 219 218 217 221 234 248 248 249 258 264 264 265 267 269 267 267 269 276 284 291 296 299 300 302 305 297 281 279 288 299 303 294 294 300 299 295 295 293 289 291 295 296 295 295 294 293 293 294 294 294
272 271 270 269 265 262 259 257 255 254 254 253 250 248 246 248 249 248 245 242 241 241 242 241 238 237 235 230 226 228 225 216 213 214 210 208 215 224 232 244 248 245 253 265 265 262 260 257 258 261 265 272 282 292 299 302 300 299 297 276 270 288 303 312 322 332 318 298 297 297 295 298 301 301 303 303 299 297 297 295 294 294 294 294 293
272 270 269 268 266 264 261 259 256 255 254 253 251 250 250 250 250 250 248 247 248 249 247 243 240 238 242 243 234 227 228 228 225 215 200 192 197 208 223 241 229 224 249 277 266 251 249 249 255 263 265 267 274 274 265 265 268 276 282 280 269 275 287 293 309 316 302 289 290 295 298 300 303 304 305 303 301 300 299 295 293 295 295 294 293
275 273 271 268 266 265 263 260 258 256 254 252 252 252 251 250 248 249 251 250 251 252 250 247 245 244 247 250 239 228 230 236 232 216 207 209 216 218 225 232 220 220 247 274 252 241 248 248 247 248 237 235 244 231 228 248 256 254 277 293 285 257 270 284 294 293 287 282 288 298 300 301 304 305 305 303 301 299 296 294 295 297 295 293 293
280 277 273 269 266 264 262 260 259 257 255 254 252 251 251 250 248 249 251 251 252 254 251 249 248 246 244 244 241 233 225 222 218 211 213 225 239 240 235 235 234 236 250 260 248 244 245 234 227 224 215 217 229 227 226 246 253 244 262 284 274 277 305 318 290 284 292 296 298 300 299 301 303 304 304 303 302 302 301 298 296 296 294 294 294
277 275 273 271 269 265 262 261 260 259 257 256 254 252 251 250 249 249 251 251 251 251 246 240 237 237 235 235 235 230 221 216 215 217 225 237 247 246 238 238 243 243 245 247 243 233 223 216 213 214 214 213 219 228 234 241 246 249 258 262 261 282 317 309 292 296 303 302 300 302 302 302 303 303 303 303 301 302 302 300 299 298 295 294 293
274 274 272 271 271 268 264 261 261 261 260 257 256 254 252 251 250 250 252 253 252 249 243 237 233 233 234 234 232 230 229 227 226 229 236 244 248 246 242 240 239 238 241 245 237 217 208 209 209 209 210 210 214 226 233 232 233 243 249 249 266 284 292 297 308 317 313 301 304 305 301 302 304 302 302 303 302 301 300 298 298 299 296 296 297
272 271 267 262 263 266 266 263 262 264 262 258 256 255 252 251 250 250 251 254 255 251 246 242 239 237 237 235 234 235 236 237 236 236 238 242 246 248 246 240 235 235 239 239 229 213 206 204 204 205 205 206 210 216 218 218 222 235 247 252 272 287 284 290 309 310 299 301 309 307 302 304 305 301 302 303 301 300 300 298 299 299 297 297 299
272 272 268 262 260 263 266 265 265 267 267 263 261 259 254 251 251 250 249 251 251 248 244 245 246 245 243 243 243 245 248 249 249 248 248 250 253 252 247 239 233 233 234 229 216 208 205 199 197 200 200 203 209 210 208 215 219 225 246 258 270 287 298 310 305 293 291 300 313 312 309 308 305 302 302 303 302 302 302 301 299 299 298 298 301
273 273 273 272 271 270 268 266 266 267 265 261 259 259 256 252 251 252 250 249 250 249 246 247 247 243 244 249 251 252 253 252 250 251 251 251 250 248 245 239 235 235 233 223 209 203 200 195 194 197 198 200 203 197 199 213 222 226 238 249 260 285 301 312 310 313 323 329 324 320 315 309 308 308 306 304 304 302 301 301 302 302 301 302 305
275 273 272 272 270 264 263 269 274 270 265 261 259 258 259 257 257 256 252 248 251 254 251 248 248 244 240 244 248 249 249 247 245 245 245 242 240 241 239 234 231 229 223 212 202 196 192 188 190 192 190 186 184 191 207 214 215 232 246 252 260 277 297 318 332 346 359 346 326 324 320 314 313 312 308 307 308 306 306 307 307 305 305 307 313
274 269 266 265 260 251 256 287 299 286 276 278 278 274 271 268 264 262 258 253 254 257 253 248 253 253 242 239 246 250 250 250 248 243 239 237 236 232 222 213 213 213 205 195 189 187 187 187 184 177 178 181 183 202 219 213 205 229 250 264 274 284 308 335 342 343 340 330 328 330 326 321 319 317 314 312 311 310 311 312 312 313 315 317 320
271 265 263 266 261 257 286 319 318 305 298 295 287 280 278 275 269 265 262 256 252 253 250 247 249 250 248 254 259 255 249 249 249 243 238 236 230 216 201 196 196 195 193 193 193 194 199 201 188 173 179 195 197 202 213 210 206 230 249 266 282 290 309 327 322 314 317 324 331 335 332 328 325 321 319 316 312 314 320 323 324 324 323 323 325
260 256 287 345 358 351 334 323 315 311 305 293 281 273 270 269 264 257 253 251 248 246 245 244 244 243 243 250 256 253 247 244 243 238 234 229 214 194 184 188 190 189 192 198 199 197 198 195 181 173 184 196 192 192 201 196 190 228 266 283 281 289 302 302 296 303 319 329 337 344 344 338 333 330 328 325 324 328 330 330 328 326 326 329 331
298 128 86 36 8 351 337 329 329 328 319 305 293 282 267 254 247 242 240 243 243 240 238 237 235 232 229 231 241 248 247 236 230 227 219 208 193 182 182 188 187 183 184 188 188 178 167 166 171 177 185 189 185 187 196 187 175 212 267 261 268 279 290 293 297 306 322 334 342 347 346 344 344 346 346 342 338 334 329 326 327 329 332 334 333
1 14 41 22 1 356 359 360 349 341 334 324 307 292 271 254 247 244 243 240 234 230 225 220 221 225 226 227 236 241 232 208 194 189 184 182 180 178 179 178 174 172 174 172 165 157 154 163 171 172 175 179 172 166 177 183 173 179 243 255 268 279 280 282 294 307 321 333 338 342 348 352 356 356 353 347 338 331 330 332 333 332 332 333 335
360 16 34 34 19 15 22 15 358 354 360 359 347 329 306 270 248 236 227 217 211 213 215 218 226 235 235 228 220 208 190 178 173 170 171 175 176 173 171 169 169 173 173 165 156 151 154 161 167 172 186 194 185 174 187 203 198 200 236 257 273 290 293 293 301 311 321 328 334 343 353 359 0 358 353 346 339 341 346 345 338 333 334 336 337
347 342 2 37 32 27 32 27 13 12 18 19 20 23 26 31 64 194 204 207 210 215 220 226 232 232 216 194 183 178 175 175 173 169 168 170 169 168 169 169 168 165 159 150 145 146 155 165 175 186 200 204 199 196 208 217 214 220 239 252 275 302 310 313 318 320 322 327 334 344 355 2 4 360 352 348 352 359 357 349 338 335 337 336 334
325 309 277 77 39 21 27 24 17 21 27 29 29 28 31 47 71 88 107 139 169 177 178 180 179 173 168 167 170 174 175 172 168 164 164 164 163 164 165 161 153 145 140 141 145 153 165 177 184 189 192 194 197 202 209 215 221 233 245 259 283 305 320 330 333 333 332 332 336 344 354 2 4 358 354 0 11 11 3 354 345 338 335 333 334
323 318 145 119 58 60 60 42 37 42 41 41 42 45 51 66 83 93 97 99 106 120 128 133 138 143 148 154 158 161 162 161 159 157 156 154 153 153 150 146 141 137 144 159 165 168 173 180 183 181 185 190 194 198 203 211 223 238 255 277 295 311 326 334 339 342 341 337 339 346 353 359 1 359 360 10 19 16 7 357 345 336 332 332 335
62 106 115 81 58 78 74 61 61 64 59 57 63 70 75 79 84 90 97 101 106 112 118 123 126 128 131 136 140 142 145 145 145 146 144 140 134 129 127 133 140 144 149 161 169 176 187 198 199 188 184 188 192 198 205 214 228 248 271 294 308 317 323 328 337 344 345 345 347 348 349 354 360 0 2 12 20 15 3 349 338 335 337 338 339
76 87 81 55 54 76 72 60 62 69 70 71 72 76 84 88 87 86 90 97 104 111 116 120 123 125 129 132 133 133 133 133 135 142 145 139 130 128 134 145 157 160 144 144 164 182 195 202 201 194 188 189 196 205 214 223 241 266 288 307 318 319 317 323 333 342 347 350 351 348 348 353 358 359 3 13 16 6 350 339 336 338 342 346 348
70 80 71 57 60 76 73 66 64 65 70 75 74 73 80 89 87 82 83 90 101 112 119 123 126 128 129 128 123 119 119 121 126 140 149 149 142 143 148 152 155 149 142 152 171 181 185 187 190 192 192 194 202 215 227 237 256 279 294 306 312 312 313 319 327 335 345 351 350 350 352 352 351 355 3 9 3 349 339 339 340 340 341 346 348
56 61 57 56 70 88 93 95 93 84 76 77 78 78 80 82 81 78 77 81 92 105 113 119 127 131 131 128 123 118 119 123 124 129 143 153 154 155 156 153 142 132 135 147 156 160 167 182 190 191 192 200 212 227 241 253 269 282 290 299 307 311 313 318 322 328 338 345 348 351 352 347 346 356 4 1 348 338 340 345 345 342 341 342 343
89 84 83 111 168 176 167 153 139 122 102 90 88 88 89 88 87 87 85 84 89 97 101 107 120 131 136 140 144 140 132 130 127 123 130 146 156 161 166 169 164 156 152 150 152 157 165 174 180 184 193 207 221 235 254 267 276 286 294 305 313 315 316 319 321 324 330 337 342 347 349 348 351 358 359 352 345 344 345 346 346 344 342 340 340